Regional Weather Roundup
Issued by NWS

Home | Current Version | Previous Version | Text Only | Print | Product List | Glossary Off
Versions: 1 2 3 4 5 6 7 8 9 10 11 12 13 14 15 16 17 18 19 20 21 22 23 24 25 26 27 28 29 30 31 32 33 34 35 36 37 38 39 40 41 42 43 44 45 46 47 48 49 50

000
ASUS45 KPSR 271600
RWRAZ

PRELIMINARY ARIZONA REGIONAL HOURLY WEATHER ROUNDUP
NATIONAL WEATHER SERVICE PHOENIX AZ
900 AM MST TUE JAN 27 2015

NOTE: FAIR INDICATES FEW OR NO CLOUDS BELOW 12,000 FEET WITH NO
SIGNIFICANT WEATHER AND/OR OBSTRUCTIONS TO VISIBILITY.

AZZ001>003-036-271700-
NORTHWEST ARIZONA

CITY           SKY/WX    TMP DP  RH WIND       PRES   REMARKS
KINGMAN        MOSUNNY   46  43  89 SE7       30.28R
$$

AZZ004>008-015-016-018-271700-
NORTH CENTRAL ARIZONA

CITY           SKY/WX    TMP DP  RH WIND       PRES   REMARKS
GRAND CANYON   LGT RAIN  40  39  97 S9        30.35R FOG     WCI  34
PRESCOTT       MOSUNNY   47  40  76 SE7       30.32R
FLAGSTAFF      NOT AVBL
PAYSON         MOSUNNY   48  34  57 CALM      30.36R
$$

AZZ009>014-017-271700-
NORTHEAST ARIZONA

CITY           SKY/WX    TMP DP  RH WIND       PRES   REMARKS
WINSLOW        NOT AVBL
SAINT JOHNS    SUNNY     41  36  82 CALM      30.36R
WINDOW ROCK    CLOUDY    35  27  72 CALM      30.39R
SHOW LOW       PTSUNNY   45  36  70 S7        30.40R
$$

AZZ023-271700-
GREATER PHOENIX AREA

CITY           SKY/WX    TMP DP  RH WIND       PRES   REMARKS
PHOENIX        PTSUNNY   58  52  80 CALM      30.23R
GLENDALE       PTSUNNY   55  55 100 CALM      30.26R
LUKE AFB       NOT AVBL
DEER VALLEY    CLOUDY    57  50  77 CALM      30.24R
SCOTTSDALE     PTSUNNY   56  51  84 CALM      30.25R
MESA-FALCON    PTSUNNY   54  50  87 CALM      30.24R
MESA-GATEWAY   CLOUDY    50  52 100 E5        30.27R
CHANDLER       LGT RAIN  52  50  93 SE14      30.26R
$$

AZZ027-028-271700-
SOUTHWEST MARICOPA COUNTY AND PINAL COUNTY

CITY           SKY/WX    TMP DP  RH WIND       PRES   REMARKS
CASA GRANDE    PTSUNNY   50  46  87 CALM      30.25S
GILA BEND      PTSUNNY   54  51  90 E5        30.23R
$$

AZZ503-504-507>509-271700-
SOUTHEAST ARIZONA

CITY           SKY/WX    TMP DP  RH WIND       PRES   REMARKS
TUCSON         MOSUNNY   56  49  77 N5        30.27S
DAVIS-MONTHAN  MOSUNNY   59  42  53 NE2       30.25S
RYAN FIELD       N/A     54  52  94 E10       30.27R
NOGALES        SUNNY     51  46  83 S7        30.29R
SIERRA VISTA   MOSUNNY   55  37  50 E5        30.31S
SAFFORD        SUNNY     54  37  52 SE10      30.32R
$$

AZZ020-021-025-026-031-271700-
SOUTHWEST ARIZONA

CITY           SKY/WX    TMP DP  RH WIND       PRES   REMARKS
YUMA           PTSUNNY   58  53  84 N9        30.22R
$$

CAZ031-033-041-043-047-048-061-271700-
SOUTHERN CALIFORNIA

CITY           SKY/WX    TMP DP  RH WIND       PRES   REMARKS
DOWNTOWN L.A.  CLOUDY    60  53  77 CALM      30.19R
L.A. AIRPORT   PTSUNNY   60  54  80 NE3       30.20R
SAN DIEGO      MOSUNNY   58  50  75 CALM      30.19R
BURBANK        CLOUDY    56  53  90 CALM      30.20R
ONTARIO        PTSUNNY   59  53  80 CALM      30.20R
RIVERSIDE      PTSUNNY   56  54  93 CALM      30.20R
PALM SPRINGS   PTSUNNY   60  55  83 CALM      30.26R
EL CENTRO NAS  PTSUNNY   55  54  96 W5        30.24R FOG
IMPERIAL       CLOUDY    54  53  97 CALM      30.23R
BLYTHE         SUNNY     54  54 100 CALM      30.24R FOG
$$

NVZ020-UTZ003-271700-
SOUTHERN NEVADA-UTAH

CITY           SKY/WX    TMP DP  RH WIND       PRES   REMARKS
LAS VEGAS      NOT AVBL
SALT LAKE CITY PTSUNNY   33  30  88 SE5       30.21R WCI  29
$$

NMZ009-TXZ055-271700-
NEW MEXICO-WEST TEXAS

CITY           SKY/WX    TMP DP  RH WIND       PRES   REMARKS
ALBUQUERQUE    MOSUNNY   36  27  69 CALM      30.38S
EL PASO        PTSUNNY   47  32  56 N5        30.34R
$$


........................KEY........................
SKY/WX - SKY CONDITION/WEATHER
TMP    - TEMPERATURE IN FAHRENHEIT
DP     - DEW POINT IN FAHRENHEIT
RH     - RELATIVE HUMIDITY IN PERCENT
WIND   - DIRECTION AND SPEED IN MILES PER HOUR (MPH)
VRB    - VARIABLE WIND DIRECTION
PRES   - MEAN SEA LEVEL PRESSURE IN INCHES OF MERCURY
         F - FALLING PRESSURE   R - RISING PRESSURE
         S - STEADY PRESSURE
VSB    - VISIBILITY IN MILES
HX     - HEAT INDEX IN FAHRENHEIT
WCI    - WIND CHILL INDEX IN FAHRENHEIT
TC     - TEMPERATURE IN CELSIUS WHICH IS ALSO KNOWN AS
         TEMPERATURE IN CENTIGRADE
AFB    - AIR FORCE BASE
         LUKE AFB IS LUKE AIR FORCE BASE
         DAVIS-MONTHAN IS DAVIS-MONTHAN AIR FORCE BASE
NAS    - NAVAL AIR STATION
         EL CENTRO NAS IS EL CENTRO NAVAL AIR STATION
N/A    - NOT AVAILABLE


USA.gov is the U.S. government's official web portal to all federal, state and local government web resources and services.